Flag for Poland Weather past 2 weeks in Poznan, Poland

Now
73 °F

Passing clouds.


Feels Like: 76 °F
Forecast: 49 / 74 °F
Wind: 13 mph from West

Location: Poznan Airport

Current Time: Aug 28, 2014 at 3:12:48 PM

Latest Report: Aug 28, 2014 at 2:30 PM


Visibility: N/A

Pressure: 30.04 "Hg

Humidity: 29%

Dew point: 39 °F

Location of PoznanLocation

Historic Weather in Poznan — Graph

°F

Poznan temperature yesterday

Maximum temperature yesterday: 70 °F (at 1:30 PM)
Minimum temperature yesterday: 43 °F (at 4:30 AM)
Average temperature yesterday: 56 °F

Past Weeks' High & Low Weather Summary

 TemperatureHumidityPressure
High77 °F (Aug 13, 2:00 PM)100% (Aug 14, 5:00 AM)30.04 "Hg (Aug 14, 5:00 AM)
Low43 °F (Aug 27, 4:30 AM)31% (Aug 28, 1:30 PM)29.56 "Hg (Aug 14, 3:00 AM)
Average60 °F70%29.87 "Hg
* Reported Aug 13 1:00 PM — Aug 28 1:30 PM, Poznan, Weather by CustomWeather, © 2014

Note: Actual official high and low records may vary slightly from our data, if they occured in-between our weather recording intervals... More about our weather records

Advertising

Poznan weather history for previous 24 hours

 ConditionsComfort  
Time TempWeatherWind HumidityBarometerVisibility
1:30 PM
Aug 28
72 °FPassing clouds.16 mph31%30.04 "HgN/A
1:00 PM70 °FPassing clouds.14 mph33%30.04 "HgN/A
12:30 PM70 °FScattered clouds.14 mph38%30.04 "HgN/A
12:00 PM70 °FPassing clouds.12 mph40%30.04 "HgN/A
11:30 AM66 °FPassing clouds.10 mph49%30.04 "HgN/A
11:00 AM66 °FPassing clouds.8 mph52%30.04 "HgN/A
10:30 AM64 °FPassing clouds.9 mph64%30.04 "HgN/A
10:00 AM63 °FSunny.8 mph68%30.04 "Hg10 mi
9:30 AM61 °FSunny.8 mph72%30.04 "Hg10 mi
9:00 AM59 °FPassing clouds.8 mph77%30.04 "HgN/A
8:30 AM57 °FSunny.8 mph77%30.04 "Hg10 mi
8:00 AM54 °FSunny.7 mph88%30.04 "Hg10 mi
7:30 AM52 °FSunny.6 mph88%30.01 "Hg10 mi
7:00 AM50 °FSunny.3 mph94%30.01 "Hg10 mi
6:30 AM48 °FFog.2 mph94%30.01 "HgN/A
6:00 AM46 °FFog.3 mph93%30.01 "HgN/A
5:30 AM48 °FFog.2 mph94%30.01 "HgN/A
5:00 AM48 °FClear.5 mph100%30.01 "Hg10 mi
4:30 AM48 °FClear.3 mph94%30.01 "Hg10 mi
4:00 AM48 °FClear.2 mph94%29.98 "Hg10 mi
3:30 AM46 °FFog.1 mph100%29.98 "HgN/A
3:00 AM48 °FFog.2 mph94%29.98 "HgN/A
2:30 AM48 °FFog.1 mph94%29.98 "HgN/A
2:00 AM48 °FFog.1 mph94%30.01 "HgN/A
1:30 AM48 °FFog.1 mph94%29.98 "HgN/A
1:00 AM50 °FFog.2 mph94%29.98 "HgN/A
12:30 AM50 °FClear.2 mph94%29.98 "Hg10 mi
12:00 AM52 °FClear.3 mph94%29.98 "Hg10 mi
11:30 PM
Aug 27
54 °FClear.3 mph88%29.98 "Hg10 mi
11:00 PM52 °FClear.5 mph94%29.98 "Hg10 mi
10:30 PM52 °FClear.1 mph94%29.98 "Hg10 mi
10:00 PM55 °FClear.3 mph82%29.98 "Hg10 mi
9:30 PM55 °FClear.3 mph82%29.98 "Hg10 mi
9:00 PM55 °FClear.5 mph82%29.95 "Hg10 mi
8:00 PM57 °FSunny.5 mph77%29.95 "Hg10 mi
7:30 PM59 °FScattered clouds.5 mph72%29.95 "HgN/A
7:00 PM59 °FSprinkles. Partly sunny.6 mph72%29.95 "HgN/A
6:30 PM61 °FPartly sunny.3 mph77%29.95 "HgN/A
6:00 PM61 °FPassing clouds.5 mph77%29.92 "HgN/A
5:00 PM61 °FSprinkles. Scattered clouds.5 mph72%29.92 "HgN/A
4:30 PM63 °FPartly sunny.9 mph64%29.92 "HgN/A
4:00 PM66 °FPartly sunny.12 mph43%29.92 "HgN/A
3:30 PM64 °FPassing clouds.6 mph60%29.89 "HgN/A
3:00 PM66 °FScattered clouds.5 mph49%29.89 "HgN/A
Weather by CustomWeather, © 2014

See weather overviewHow to use our weather pages